Overview Statistics Trail Chart Weather Telemetry Raw packets
 

This is the latest recevied weather packets stored in our database for station/object OE3CJB-13. If no packets are shown the sender has not sent any weather packets the latest 10 day(s).

<< 32 33 34 35 36 37 38 >>
Time Temp. Humidity Pressure Rain* Wind** Luminosity Snow
1787952618 22.22° C 69% 1180.3 hPa 0 mm - - -
1787951765 22.22° C 68% 1180.8 hPa 0 mm - - -
1787950867 22.22° C 68% 1180.5 hPa 0 mm - - -
1787949965 22.78° C 67% 1179.4 hPa 0 mm - - -
1787949019 22.78° C 67% 1180.2 hPa 0 mm - - -
1787948154 22.78° C 67% 1179.6 hPa 0 mm - - -
1787947287 22.78° C 67% 1179.9 hPa 0 mm - - -
1787946330 22.78° C 67% 1179.1 hPa 0 mm - - -
1787945418 22.78° C 67% 1178 hPa 0 mm - - -
1787944565 23.33° C 65% 1178.5 hPa 0 mm - - -
1787943644 23.33° C 62% 1179.6 hPa 0 mm - - -
1787942730 23.89° C 58% 1178.2 hPa 0 mm - - -
1787941867 23.89° C 57% 1177.8 hPa 0 mm - - -
1787940954 24.44° C 56% 1178.1 hPa 0 mm - - -
1787940044 25° C 54% 1178 hPa 0 mm - - -
1787939130 26.67° C 49% 1176.8 hPa 0 mm - - -
1787938218 29.44° C 43% 1175 hPa 0 mm - - -
1787937354 30.56° C 33% 1172.7 hPa 0 mm - - -
1787936444 30.56° C 32% 1171.2 hPa 0 mm - - -
1787935530 31.11° C 31% 1169.7 hPa 0 mm - - -
1787934618 31.67° C 30% 1166.8 hPa 0 mm - - -
1787933755 31.67° C 29% 1165.4 hPa 0 mm - - -
1787932844 32.22° C 28% 1165.3 hPa 0 mm - - -
1787931930 32.22° C 27% 1163.9 hPa 0 mm - - -
1787931022 32.78° C 27% 1163.4 hPa 0 mm - - -

* Rain latest hour (hover to see other rain measurements)
** Current wind speed in m/s (hover to see current wind gust speed)